This is the latest recevied weather packets stored in our database for station/object DK9XR-14. If no packets are shown the sender has not sent any weather packets the latest 10 day(s).
| Time | Temp. | Humidity | Pressure | Rain* | Wind** | Luminosity | Snow |
|---|---|---|---|---|---|---|---|
| 1778170975 | 12.78° C | 72% | 1016 hPa | 0 mm | - | - | - |
| 1778170676 | 13.33° C | 73% | 1016.1 hPa | 0 mm | - | - | - |
| 1778170375 | 13.33° C | 75% | 1016 hPa | 0 mm | - | - | - |
| 1778170074 | 13.33° C | 73% | 1015.9 hPa | 0 mm | - | - | - |
| 1778169771 | 13.33° C | 74% | 1015.9 hPa | 0 mm | - | - | - |
| 1778169472 | 12.78° C | 75% | 1016 hPa | 0 mm | - | - | - |
| 1778169171 | 13.33° C | 74% | 1016 hPa | 0 mm | - | - | - |
| 1778168872 | 13.33° C | 73% | 1015.9 hPa | 0 mm | - | - | - |
| 1778168572 | 13.33° C | 72% | 1015.9 hPa | 0 mm | - | - | - |
| 1778168271 | 13.33° C | 72% | 1015.8 hPa | 0 mm | - | - | - |
| 1778167972 | 13.89° C | 68% | 1015.8 hPa | 0 mm | - | - | - |
| 1778167669 | 13.89° C | 67% | 1015.9 hPa | 0 mm | - | - | - |
| 1778167367 | 14.44° C | 69% | 1015.8 hPa | 0 mm | - | - | - |
| 1778167068 | 14.44° C | 68% | 1015.7 hPa | 0 mm | - | - | - |
| 1778166768 | 14.44° C | 68% | 1015.6 hPa | 0 mm | - | - | - |
| 1778166468 | 14.44° C | 67% | 1015.7 hPa | 0 mm | - | - | - |
| 1778166159 | 14.44° C | 65% | 1015.7 hPa | 0 mm | - | - | - |
| 1778165860 | 14.44° C | 66% | 1015.7 hPa | 0 mm | - | - | - |
| 1778165557 | 14.44° C | 67% | 1015.8 hPa | 0 mm | - | - | - |
| 1778165256 | 13.89° C | 68% | 1015.8 hPa | 0 mm | - | - | - |
| 1778164952 | 14.44° C | 70% | 1015.7 hPa | 0 mm | - | - | - |
| 1778164651 | 13.89° C | 71% | 1015.8 hPa | 0 mm | - | - | - |
| 1778164358 | 13.89° C | 70% | 1015.9 hPa | 0 mm | - | - | - |
| 1778164051 | 13.89° C | 70% | 1015.7 hPa | 0 mm | - | - | - |
| 1778163751 | 13.89° C | 70% | 1015.7 hPa | 0 mm | - | - | - |
* Rain latest hour (hover to see other rain measurements)
** Current wind speed in m/s (hover to see current wind gust speed)